• MPC Preparation (Info)

  • MPEC 2016-P107: 2016 PP39

    The following Minor Planet Electronic Circular may be linked-to from your own Web pages, but must not otherwise be redistributed electronically.

    A form allowing access to any MPEC is at the bottom of this page.


    Read MPEC 2016-P106 Read MPEC 2016-P108


    M.P.E.C. 2016-P107                               Issued 2016 Aug. 12, 15:16 UT
    
         The Minor Planet Electronic Circulars contain information on unusual
             minor planets and routine data on comets.  They are published
        on behalf of Division F of the International Astronomical Union by the
              Minor Planet Center, Smithsonian Astrophysical Observatory,
                              Cambridge, MA 02138, U.S.A.
    
                 Prepared using the Tamkin Foundation Computer Network
    
                                  MPC@CFA.HARVARD.EDU
                URL https://www.minorplanetcenter.net/    ISSN 1523-6714
    
                                       2016 PP39
    
    Observations:
         K16P39P* C2016 08 09.46057 22 20 07.617-26 43 25.46         21.4 wLEP107F51
         K16P39P  C2016 08 09.48299 22 20 06.749-26 42 22.18         21.1 wLEP107F51
         K16P39P  C2016 08 09.49419 22 20 06.321-26 41 50.46         21.2 wLEP107F51
         K16P39P  C2016 08 11.45500 22 19 16.030-25 07 11.73         21.3 wLEP107F51
         K16P39P  C2016 08 11.46644 22 19 15.553-25 06 37.87         21.4 wLEP107F51
         K16P39P  C2016 08 11.47788 22 19 15.063-25 06 03.97         21.2 wLEP107F51
         K16P39P |C2016 08 12.19093 22 18 55.39 -24 30 07.3          21.1 VuEP107807
         K16P39P |C2016 08 12.19540 22 18 55.22 -24 29 54.1          21.0 VuEP107807
         K16P39P |C2016 08 12.19994 22 18 55.03 -24 29 39.9          21.0 VuEP107807
         K16P39P KC2016 08 12.44252 22 18 46.30 -24 17 56.9          20.2 RoEP107291
         K16P39P KC2016 08 12.44396 22 18 46.27 -24 17 52.4          20.5 RoEP107291
         K16P39P KC2016 08 12.44541 22 18 46.17 -24 17 47.3          20.3 RoEP107291
         K16P39P  C2016 08 12.45475 22 18 45.83 -24 17 19.0          19.9 RoEP107291
         K16P39P  C2016 08 12.45628 22 18 45.78 -24 17 14.5          20.2 RoEP107291
         K16P39P  C2016 08 12.45782 22 18 45.69 -24 17 08.7          20.0 RoEP107291
    
    Observer details:
    291 LPL/Spacewatch II.  Observer R. A. Mastaler.  1.8-m f/2.7 reflector + CCD.
    807 Cerro Tololo.  Observers T. Linder, R. Holmes.  0.61-m f/6.5 astrograph
        + CCD.
    F51 Pan-STARRS 1, Haleakala.  Observers B. Gibson, T. Goggia, N. Primak,
        A. Schultz, M. Willman.  Measurers K. Chambers, S. Chastel, L. Denneau,
        H. Flewelling, M. Huber, E. Lilly, E. Magnier, R. Wainscoat, C. Waters,
        R. Weryk.  1.8-m Ritchey-Chretien + CCD.
    
    Orbital elements:
    2016 PP39                                                Earth MOID = 0.2538 AU
    Epoch 2016 July 31.0 TT = JDT 2457600.5                 MPC
    M 352.53555              (2000.0)            P               Q
    n   0.28689720     Peri.  359.59971     +0.88676978     +0.45011995
    a   2.2767666      Node   332.85978     -0.42342822     +0.69999778
    e   0.4445064      Incl.   13.31145     -0.18533184     +0.55443227
    P   3.44           H   22.6           G   0.15           U   7
    Residuals in seconds of arc
    160809 F51  0.1+  0.0     160811 F51  0.0   0.1+    160812 291  0.2+  0.3-
    160809 F51  0.1-  0.0     160812 807  0.2-  0.4-    160812 291  0.4-  0.4+
    160809 F51  0.1-  0.0     160812 807  0.0   0.6-    160812 291  0.0   0.0
    160811 F51  0.1+  0.0     160812 807  0.0   0.0     160812 291  0.2+  0.2-
    160811 F51  0.1+  0.0     160812 291  0.2-  0.4-    160812 291  0.2-  0.8+
    
    Ephemeris:
    2016 PP39                a,e,i = 2.28, 0.44, 13                  q = 1.2647
    Date    TT    R. A. (2000) Decl.     Delta      r     Elong.  Phase     V
    2016 07 13    22 12 00.4 -40 52 18   0.3878  1.3403   141.0    28.5    22.4
    ...
    2016 07 28    22 21 36.3 -34 54 02   0.3144  1.2986   150.6    22.6    21.7
    ...
    2016 08 05    22 21 30.5 -30 01 03   0.2853  1.2827   157.5    17.6    21.3
    ...
    2016 08 11    22 19 28.2 -25 29 12   0.2693  1.2739   163.5    13.1    21.0
    2016 08 12    22 19 00.4 -24 39 46   0.2671  1.2728   164.5    12.3    21.0
    2016 08 13    22 18 30.8 -23 49 17   0.2651  1.2717   165.6    11.4    20.9
    ...
    2016 08 19    22 15 06.5 -18 26 58   0.2566  1.2668   172.4     6.1    20.6
    ...
    2016 08 27    22 10 06.9 -10 48 16   0.2548  1.2648   176.7     2.7    20.4
    ...
    2016 09 11    22 03 50.4 +02 25 42   0.2814  1.2751   160.3    15.4    21.2
    
    A. U. Tomatic                (C) Copyright 2016 MPC           M.P.E.C. 2016-P107
    

    Read MPEC 2016-P106 Read MPEC 2016-P108


    MPEC number:

    Enter an MPEC number in one of the following forms:

    • 1997-B01 (the full form)
    • J97B01 (the packed version of the full form)
    • B01 (the abbreviated form)